GW3371 Weather Reports


Display with metric or nautical units.
time (UTC)temp
F
wind
direction
speed
MPH
gust
MPH
rain 1hr
in
rain 24hr
in
rain mn
in
humidity
%
barometer
mb
20260510182522 70 360 3.0 6.0 0.00 0.22 0.01 70 1010.8
20260510182022 70 360 1.0 5.0 0.00 0.22 0.01 72 1010.9
20260510181539 69 360 2.0 5.0 0.00 0.22 0.01 73 1010.8
20260510181022 69 360 1.0 4.0 0.00 0.22 0.01 73 1010.8
20260510180523 69 360 1.0 4.0 0.00 0.22 0.01 73 1010.8
20260510180040 69 360 1.0 6.0 0.00 0.22 0.01 64 1011.0
20260510175521 69 360 1.0 6.0 0.00 0.29 0.01 74 1011.0
20260510175022 69 360 1.0 6.0 0.00 0.29 0.01 74 1010.9
20260510174539 68 360 0.0 8.0 0.00 0.29 0.01 77 1011.0
20260510174024 68 360 3.0 8.0 0.00 0.29 0.01 75 1011.1
20260510173526 67 360 1.0 8.0 0.00 0.29 0.01 76 1011.0
20260510173046 66 360 1.0 5.0 0.00 0.29 0.01 69 1011.1
20260510172522 66 360 1.0 8.0 0.00 0.29 0.01 69 1011.2
20260510172021 66 360 2.0 8.0 0.00 0.29 0.01 79 1011.1
20260510171538 65 360 3.0 8.0 0.00 0.29 0.01 80 1011.1
20260510171021 64 360 1.0 8.0 0.00 0.29 0.01 82 1011.3
20260510170529 64 360 2.0 8.0 0.00 0.29 0.01 82 1011.3
20260510170035 63 360 1.0 4.0 0.00 0.29 0.01 83 1011.3
20260510165521 63 360 1.0 5.0 0.00 0.37 0.01 84 1011.3
20260510165021 63 360 2.0 5.0 0.00 0.37 0.01 83 1011.5
20260510164546 63 360 1.0 5.0 0.00 0.37 0.01 82 1011.5
20260510164018 63 360 1.0 5.0 0.00 0.37 0.01 82 1011.6
20260510163518 63 0 1.0 5.0 0.00 0.37 0.01 82 1011.6
20260510163056 63 360 2.0 8.0 0.00 0.37 0.01 81 1011.6
20260510162521 63 360 2.0 8.0 0.00 0.37 0.01 82 1011.5
20260510162018 64 360 3.0 8.0 0.00 0.37 0.01 72 1011.6
20260510161539 64 360 2.0 8.0 0.00 0.37 0.01 82 1011.4
20260510161018 64 360 2.0 10.0 0.00 0.37 0.01 82 1011.7
20260510160518 63 360 1.0 10.0 0.00 0.37 0.01 83 1011.6
20260510160039 63 360 4.0 9.0 0.00 0.37 0.01 82 1011.7
20260510155517 63 360 2.0 8.0 0.00 0.41 0.01 83 1011.7
20260510155021 63 360 2.0 8.0 0.00 0.41 0.01 84 1011.7
20260510154535 62 360 1.0 9.0 0.00 0.41 0.01 75 1011.8
20260510154022 62 360 2.0 12.0 0.00 0.41 0.01 85 1011.9
20260510153521 61 360 4.0 12.0 0.00 0.41 0.01 85 1011.9
20260510153053 61 0 2.0 11.0 0.00 0.41 0.01 86 1012.0
20260510152521 61 360 3.0 11.0 0.00 0.41 0.01 86 1012.1
20260510152022 61 360 2.0 9.0 0.00 0.41 0.01 86 1012.0
20260510151536 60 360 2.0 9.0 0.00 0.41 0.01 87 1011.9
20260510151021 60 360 3.0 9.0 0.00 0.41 0.01 78 1011.9
20260510150523 59 360 1.0 9.0 0.00 0.41 0.01 88 1011.8
20260510150041 58 360 2.0 13.0 0.00 0.41 0.01 88 1011.8
20260510145522 58 360 3.0 13.0 0.00 0.45 0.01 89 1011.9
20260510145022 58 360 3.0 10.0 0.00 0.45 0.01 88 1011.9
20260510144543 58 0 2.0 10.0 0.00 0.45 0.01 92 1011.9
20260510144022 57 360 1.0 10.0 0.00 0.45 0.01 82 1011.9
20260510143522 56 360 2.0 6.0 0.00 0.45 0.01 84 1011.9
20260510143038 56 0 1.0 6.0 0.00 0.45 0.01 93 1012.0
20260510142523 55 0 0.0 4.0 0.00 0.45 0.01 96 1012.0
20260510142021 55 360 2.0 4.0 0.00 0.45 0.01 94 1012.1
20260510141535 55 360 0.0 6.0 0.00 0.45 0.01 96 1012.1
20260510141018 55 360 1.0 6.0 0.00 0.45 0.01 96 1012.1
20260510140517 54 360 1.0 6.0 0.00 0.45 0.01 96 1012.1
20260510140038 54 360 1.0 5.0 0.00 0.45 0.01 96 1012.1
20260510135517 54 360 2.0 5.0 0.00 0.47 0.01 96 1012.0
20260510135017 54 0 1.0 6.0 0.00 0.47 0.01 97 1012.1
20260510134540 54 360 1.0 8.0 0.00 0.47 0.01 97 1012.2
20260510134017 53 360 2.0 8.0 0.00 0.47 0.01 98 1012.1
20260510133517 53 360 1.0 6.0 0.00 0.47 0.01 99 1012.0
20260510133036 53 360 1.0 6.0 0.00 0.47 0.01 99 1012.0
20260510132522 53 360 0.0 3.0 0.00 0.47 0.01 100 1012.1
20260510132019 52 360 1.0 4.0 0.00 0.47 0.01 100 1012.0
20260510131532 52 360 0.0 5.0 0.00 0.47 0.01 100 1012.1
20260510131018 52 360 1.0 5.0 0.00 0.47 0.01 100 1012.1
20260510130518 52 360 2.0 5.0 0.00 0.47 0.01 100 1012.2
20260510130035 52 0 0.0 4.0 0.00 0.47 0.01 100 1012.1
20260510125518 52 0 1.0 3.0 0.00 0.48 0.01 100 1012.2
20260510125017 52 360 0.0 3.0 0.00 0.48 0.01 100 1012.1
20260510124539 52 360 0.0 3.0 0.00 0.48 0.01 100 1012.0
20260510124020 51 0 0.0 2.0 0.00 0.48 0.01 100 1011.9
20260510123517 51 0 0.0 2.0 0.00 0.48 0.01 100 1011.8
20260510123036 51 0 0.0 3.0 0.00 0.48 0.01 100 1011.8
20260510122517 51 0 0.0 3.0 0.00 0.48 0.01 100 1011.9
20260510122020 51 360 1.0 3.0 0.00 0.48 0.01 100 1011.9
20260510121536 51 360 0.0 2.0 0.00 0.48 0.01 100 1012.0
20260510121017 51 0 0.0 2.0 0.00 0.48 0.01 100 1012.0
20260510120518 51 360 0.0 2.0 0.00 0.48 0.01 100 1012.0
20260510120035 51 360 0.0 2.0 0.00 0.48 0.01 100 1012.0
20260510115517 51 0 0.0 4.0 0.00 0.52 0.01 100 1012.0
20260510115018 51 360 0.0 4.0 0.00 0.52 0.01 100 1012.0
20260510114540 50 360 1.0 4.0 0.00 0.52 0.01 100 1012.0
20260510114018 50 0 1.0 4.0 0.00 0.52 0.01 100 1012.1
20260510113517 50 360 1.0 3.0 0.00 0.52 0.01 100 1012.0
20260510113034 50 360 1.0 3.0 0.00 0.52 0.01 100 1012.0
20260510112518 50 360 1.0 4.0 0.00 0.52 0.01 100 1012.0
20260510112018 50 360 0.0 4.0 0.00 0.52 0.01 100 1011.9
20260510111534 50 360 0.0 1.0 0.00 0.52 0.01 100 1011.8
20260510111017 50 0 0.0 2.0 0.00 0.52 0.01 100 1011.9
20260510110517 50 0 0.0 4.0 0.00 0.52 0.01 100 1011.7
20260510110036 50 360 1.0 6.0 0.00 0.52 0.01 100 1011.7
20260510105517 50 360 1.0 6.0 0.00 0.58 0.01 100 1011.6
20260510105018 50 0 0.0 4.0 0.00 0.58 0.01 100 1011.5
20260510104534 50 360 0.0 4.0 0.00 0.58 0.01 100 1011.5
20260510104020 50 360 0.0 3.0 0.00 0.58 0.01 100 1011.3
20260510103517 50 360 0.0 2.0 0.00 0.58 0.01 100 1011.4
20260510103034 49 360 0.0 2.0 0.00 0.58 0.01 100 1011.3
20260510102517 49 360 0.0 2.0 0.00 0.58 0.01 100 1011.4
20260510102016 49 0 0.0 1.0 0.00 0.58 0.01 100 1011.4
20260510101535 49 0 0.0 1.0 0.00 0.58 0.01 100 1011.3
20260510101017 49 0 0.0 1.0 0.00 0.58 0.01 100 1011.1
20260510100520 49 0 0.0 1.0 0.00 0.58 0.01 100 1011.0
20260510100049 49 0 0.0 2.0 0.00 0.58 0.01 100 1011.0
20260510095518 49 360 0.0 3.0 0.00 0.58 0.01 100 1010.9
20260510095020 49 0 0.0 3.0 0.00 0.58 0.01 100 1010.9
20260510094550 49 360 1.0 2.0 0.00 0.58 0.01 100 1010.8
20260510094017 49 0 0.0 3.0 0.00 0.58 0.01 100 1010.5
20260510093517 49 0 0.0 3.0 0.00 0.58 0.01 100 1010.2
20260510093038 49 360 0.0 5.0 0.00 0.58 0.01 100 1010.3
20260510092518 49 0 1.0 5.0 0.00 0.58 0.01 100 1010.3
20260510092019 49 0 1.0 5.0 0.00 0.58 0.01 100 1010.3
20260510091536 49 360 1.0 4.0 0.00 0.58 0.01 100 1010.1
20260510091017 49 360 0.0 2.0 0.00 0.58 0.01 100 1010.3
20260510090517 49 0 0.0 3.0 0.00 0.58 0.01 100 1010.2
20260510090045 49 0 0.0 4.0 0.00 0.58 0.01 100 1010.3
20260510085517 49 360 0.0 4.0 0.00 0.58 0.01 100 1010.6
20260510085023 49 0 0.0 2.0 0.00 0.58 0.01 100 1010.5
20260510084541 49 0 0.0 3.0 0.00 0.58 0.01 100 1010.8
20260510084020 49 0 0.0 3.0 0.00 0.58 0.01 100 1010.8
20260510083518 49 360 0.0 3.0 0.00 0.58 0.01 100 1010.9
20260510083033 49 0 0.0 1.0 0.00 0.58 0.01 100 1011.0
20260510082517 49 0 0.0 1.0 0.00 0.58 0.01 100 1010.9
20260510082017 49 360 0.0 1.0 0.00 0.58 0.01 100 1010.9
20260510081544 49 0 0.0 2.0 0.00 0.58 0.01 100 1010.9
20260510081018 49 0 0.0 2.0 0.00 0.58 0.01 100 1011.0
20260510080518 49 0 0.0 2.0 0.00 0.58 0.01 100 1011.0
20260510080034 49 0 0.0 1.0 0.00 0.58 0.01 100 1011.0
20260510075517 49 0 0.0 1.0 0.00 0.58 0.01 100 1011.1
20260510075018 49 0 0.0 1.0 0.00 0.58 0.01 100 1011.0
20260510074537 49 0 0.0 2.0 0.00 0.58 0.01 100 1010.9
20260510074017 49 0 0.0 2.0 0.00 0.58 0.01 100 1010.9
20260510073517 48 0 0.0 2.0 0.00 0.58 0.01 100 1010.8
20260510073035 48 0 0.0 1.0 0.00 0.58 0.01 100 1010.7
20260510072517 48 0 0.0 1.0 0.00 0.58 0.01 100 1010.7
20260510072017 48 0 0.0 1.0 0.00 0.58 0.01 100 1010.8
20260510071539 48 0 0.0 1.0 0.00 0.58 0.01 100 1010.7
20260510071017 48 0 0.0 1.0 0.00 0.58 0.01 100 1010.6
20260510070519 48 0 0.0 1.0 0.00 0.58 0.01 100 1010.4
20260510070039 48 0 0.0 1.0 0.00 0.58 0.01 100 1010.4
20260510065518 48 0 0.0 1.0 0.00 0.58 0.01 100 1010.4
20260510065019 48 0 0.0 1.0 0.00 0.58 0.01 100 1010.4
20260510064537 48 360 0.0 1.0 0.00 0.58 0.01 100 1010.3
20260510064016 48 0 0.0 2.0 0.00 0.58 0.01 100 1010.3
20260510063516 49 0 0.0 2.0 0.00 0.58 0.01 100 1010.4
20260510063036 49 0 0.0 2.0 0.00 0.58 0.01 100 1010.4
20260510062517 49 0 0.0 1.0 0.00 0.58 0.01 100 1010.3
20260510062021 49 360 0.0 1.0 0.00 0.58 0.01 100 1010.3
20260510061534 49 0 0.0 1.0 0.00 0.58 0.01 100 1010.4
20260510061016 49 0 0.0 2.0 0.00 0.58 0.01 100 1010.5
20260510060517 49 0 0.0 3.0 0.00 0.58 0.01 100 1010.6
20260510060036 49 360 0.0 3.0 0.00 0.58 0.01 100 1010.7
20260510055519 49 360 0.0 2.0 0.00 0.58 0.01 100 1010.8
20260510055021 49 0 0.0 2.0 0.00 0.58 0.01 100 1010.8
20260510054536 49 360 0.0 2.0 0.00 0.58 0.01 100 1010.7
20260510054017 49 0 0.0 2.0 0.00 0.58 0.01 100 1010.8
20260510053521 49 360 0.0 2.0 0.00 0.58 0.01 100 1010.8
20260510053036 49 360 0.0 3.0 0.00 0.58 0.01 100 1010.7
20260510052517 49 360 0.0 3.0 0.00 0.58 0.01 100 1010.7
20260510052017 49 0 0.0 1.0 0.00 0.58 0.01 100 1010.7
20260510051532 49 0 0.0 1.0 0.00 0.58 0.01 100 1010.6
20260510051018 49 0 0.0 1.0 0.00 0.58 0.01 100 1010.7
20260510050517 49 360 0.0 1.0 0.00 0.58 0.01 100 1010.6
20260510050040 49 0 0.0 0.0 0.01 0.58 0.01 100 1010.5
20260510045519 48 0 0.0 1.0 0.02 0.58 0.01 100 1010.5
20260510045018 49 0 0.0 1.0 0.02 0.58 0.01 100 1010.7
20260510044537 48 0 0.0 0.0 0.02 0.58 0.01 100 1010.8
20260510044016 48 0 0.0 1.0 0.02 0.58 0.01 100 1010.8
20260510043516 48 0 0.0 1.0 0.02 0.58 0.01 100 1010.9
20260510043037 48 0 0.0 0.0 0.02 0.58 0.01 100 1010.9
20260510042515 48 0 0.0 1.0 0.02 0.58 0.01 100 1010.9
20260510042016 48 0 0.0 1.0 0.02 0.58 0.01 100 1010.8
20260510041532 48 0 0.0 1.0 0.02 0.58 0.01 100 1010.9
20260510041017 48 0 0.0 1.0 0.02 0.58 0.01 100 1011.0
20260510040517 48 0 0.0 1.0 0.02 0.58 0.01 100 1010.9
20260510040034 48 0 0.0 1.0 0.01 0.58 0.00 100 1011.0
20260510035517 48 0 0.0 1.0 0.00 0.57 0.57 100 1011.0
20260510035018 48 0 0.0 1.0 0.00 0.57 0.57 100 1011.0
20260510034541 48 0 0.0 1.0 0.00 0.57 0.57 100 1011.0
20260510034018 48 360 0.0 1.0 0.00 0.57 0.57 100 1011.0
20260510033518 48 0 0.0 1.0 0.00 0.57 0.57 100 1010.9
20260510033041 48 0 0.0 1.0 0.00 0.57 0.57 100 1010.9
20260510032518 48 0 0.0 1.0 0.00 0.57 0.57 100 1010.9
20260510032019 48 0 0.0 1.0 0.00 0.57 0.57 100 1011.0
20260510031537 48 0 0.0 1.0 0.00 0.57 0.57 100 1010.9
20260510031018 48 0 0.0 1.0 0.00 0.57 0.57 100 1010.8
20260510030517 48 0 0.0 1.0 0.00 0.57 0.57 100 1010.9
20260510030034 48 0 0.0 1.0 0.00 0.57 0.57 100 1011.0
20260510025518 48 0 0.0 1.0 0.00 0.57 0.57 100 1011.0
20260510025017 48 0 0.0 1.0 0.00 0.57 0.57 100 1010.9
20260510024538 48 0 0.0 1.0 0.00 0.57 0.57 100 1010.8
20260510024016 48 360 0.0 1.0 0.00 0.57 0.57 100 1010.9
20260510023517 48 0 0.0 3.0 0.00 0.57 0.57 100 1011.0
20260510023037 48 0 0.0 3.0 0.00 0.57 0.57 100 1010.9
20260510022517 48 360 1.0 3.0 0.00 0.57 0.57 100 1010.8
20260510022017 48 0 0.0 1.0 0.00 0.57 0.57 100 1011.1
20260510021534 48 0 0.0 1.0 0.00 0.57 0.57 100 1011.1
20260510021018 48 0 0.0 1.0 0.00 0.57 0.57 100 1011.2
20260510020523 48 360 0.0 1.0 0.00 0.57 0.57 100 1011.3
20260510020038 48 0 0.0 1.0 0.00 0.57 0.57 100 1011.3
20260510015518 48 0 0.0 1.0 0.00 0.57 0.57 100 1011.3
20260510015021 48 0 0.0 1.0 0.00 0.57 0.57 100 1011.5
20260510014541 48 0 0.0 1.0 0.00 0.57 0.57 100 1011.6
20260510014017 48 0 0.0 0.0 0.00 0.57 0.57 100 1011.5
20260510013516 48 0 0.0 1.0 0.00 0.57 0.57 100 1011.4
20260510013036 48 0 0.0 1.0 0.00 0.57 0.57 100 1011.3
20260510012517 48 360 0.0 1.0 0.00 0.57 0.57 100 1011.3
20260510012021 48 0 0.0 1.0 0.00 0.57 0.57 100 1011.4
20260510011541 48 360 0.0 1.0 0.00 0.57 0.57 100 1011.3
20260510011016 47 0 0.0 1.0 0.00 0.57 0.57 100 1011.2
20260510010516 47 0 0.0 1.0 0.00 0.57 0.57 100 1010.9
20260510010037 47 0 0.0 1.0 0.00 0.57 0.57 100 1010.8
20260510005517 47 0 0.0 2.0 0.00 0.57 0.57 100 1010.8
20260510005016 47 0 0.0 2.0 0.00 0.57 0.57 100 1010.9
20260510004537 47 0 0.0 3.0 0.00 0.57 0.57 100 1010.8
20260510004016 47 0 0.0 3.0 0.00 0.57 0.57 100 1010.8
20260510003520 47 360 1.0 3.0 0.00 0.57 0.57 100 1010.7
20260510003039 47 0 0.0 2.0 0.00 0.57 0.57 100 1010.7
20260510002517 47 360 0.0 2.0 0.00 0.57 0.57 100 1010.6
20260510002017 47 360 0.0 2.0 0.00 0.57 0.57 100 1010.4
20260510001537 47 0 0.0 2.0 0.00 0.57 0.57 100 1010.3
20260510001017 47 0 0.0 1.0 0.00 0.57 0.57 100 1010.2
20260510000517 47 360 0.0 1.0 0.00 0.57 0.57 100 1010.3
20260510000057 47 0 0.0 1.0 0.00 0.57 0.57 100 1010.5
20260509235518 47 0 0.0 1.0 0.00 0.57 0.57 100 1010.7
20260509235023 47 0 0.0 1.0 0.00 0.57 0.57 100 1010.6
20260509234547 47 0 0.0 1.0 0.00 0.57 0.57 100 1010.8
20260509234016 47 0 0.0 1.0 0.00 0.57 0.57 100 1010.7
20260509233519 47 0 0.0 1.0 0.00 0.57 0.57 100 1010.6
20260509233034 47 0 0.0 1.0 0.00 0.57 0.57 100 1010.6
20260509232521 47 0 0.0 1.0 0.00 0.57 0.57 100 1010.7
20260509232017 47 0 0.0 1.0 0.00 0.57 0.57 100 1010.7
20260509231538 47 0 0.0 1.0 0.00 0.57 0.57 100 1010.7
20260509231017 47 0 0.0 1.0 0.00 0.57 0.57 100 1010.6
20260509230517 47 0 0.0 1.0 0.00 0.57 0.57 100 1010.6
20260509230038 47 0 0.0 1.0 0.00 0.57 0.57 100 1010.7
20260509225518 47 0 0.0 2.0 0.00 0.57 0.57 100 1010.7
20260509225018 47 0 0.0 2.0 0.00 0.57 0.57 100 1010.7
20260509224536 47 0 0.0 1.0 0.00 0.57 0.57 100 1010.7
20260509224021 47 0 0.0 2.0 0.00 0.57 0.57 100 1010.6
20260509223522 47 360 0.0 2.0 0.00 0.57 0.57 100 1010.5
20260509223036 47 0 0.0 2.0 0.00 0.57 0.57 100 1010.5
20260509222521 47 0 0.0 2.0 0.00 0.57 0.57 100 1010.4
20260509222022 47 0 0.0 2.0 0.00 0.57 0.57 100 1010.4
20260509221535 47 0 0.0 2.0 0.01 0.57 0.57 100 1010.4
20260509221022 47 360 0.0 2.0 0.01 0.57 0.57 100 1010.3
20260509220521 47 360 0.0 2.0 0.01 0.57 0.57 100 1010.3
20260509220039 47 360 0.0 2.0 0.02 0.57 0.57 100 1010.4
20260509215522 47 0 0.0 2.0 0.02 0.57 0.57 100 1010.6
20260509215024 47 0 0.0 2.0 0.03 0.57 0.57 100 1010.6
20260509214535 47 0 0.0 2.0 0.03 0.57 0.57 100 1010.7
20260509214021 47 0 0.0 2.0 0.03 0.57 0.57 100 1010.7
20260509213521 47 360 0.0 2.0 0.04 0.57 0.57 100 1010.7
20260509213039 47 360 0.0 1.0 0.04 0.57 0.57 100 1010.7
20260509212522 47 0 0.0 1.0 0.04 0.57 0.57 100 1010.8
20260509212022 47 360 0.0 1.0 0.05 0.57 0.57 100 1010.9
20260509211539 47 0 0.0 2.0 0.04 0.56 0.56 100 1010.9
20260509211021 47 0 0.0 2.0 0.05 0.56 0.56 100 1011.0
20260509210521 47 0 0.0 2.0 0.05 0.56 0.56 100 1011.1
20260509210042 47 0 0.0 2.0 0.04 0.55 0.55 100 1011.2
20260509205521 47 0 0.0 2.0 0.05 0.55 0.55 100 1011.2
20260509205022 47 360 0.0 1.0 0.04 0.54 0.54 100 1011.2
20260509204541 47 0 0.0 2.0 0.05 0.54 0.54 100 1011.3
20260509204025 47 0 0.0 2.0 0.05 0.54 0.54 100 1011.4
20260509203521 47 360 0.0 2.0 0.05 0.52 0.52 100 1011.5
20260509203037 47 360 0.0 2.0 0.05 0.52 0.52 100 1011.5
20260509202521 47 360 0.0 2.0 0.06 0.52 0.52 100 1011.5
20260509202024 47 0 0.0 2.0 0.06 0.52 0.52 100 1011.6
20260509201538 47 0 0.0 2.0 0.07 0.52 0.52 100 1011.6
20260509201021 47 360 0.0 2.0 0.07 0.51 0.51 100 1011.6
20260509200525 47 360 0.0 2.0 0.08 0.51 0.51 100 1011.5
20260509200039 47 360 1.0 2.0 0.08 0.51 0.51 100 1011.7
20260509195522 47 0 0.0 2.0 0.08 0.50 0.50 100 1011.5
20260509195021 46 0 0.0 2.0 0.08 0.50 0.50 100 1011.5
20260509194537 46 360 0.0 2.0 0.08 0.49 0.49 100 1011.5
20260509194017 46 0 0.0 1.0 0.08 0.49 0.49 100 1011.6
20260509193518 46 0 0.0 1.0 0.08 0.48 0.48 100 1011.6
20260509193034 46 0 0.0 1.0 0.08 0.48 0.48 100 1011.6
20260509192517 46 360 0.0 1.0 0.08 0.47 0.47 100 1011.7
20260509192018 46 0 0.0 2.0 0.07 0.46 0.46 99 1011.9
20260509191534 46 0 0.0 3.0 0.07 0.45 0.45 99 1011.9
20260509191016 46 360 0.0 3.0 0.06 0.44 0.44 99 1011.9
20260509190517 46 360 0.0 3.0 0.06 0.43 0.43 99 1011.9
20260509190036 46 0 0.0 3.0 0.06 0.43 0.43 99 1011.9
20260509185517 46 360 1.0 3.0 0.06 0.42 0.42 99 1011.9
20260509185017 46 0 0.0 2.0 0.06 0.42 0.42 99 1012.0
20260509184550 46 0 0.0 2.0 0.05 0.41 0.41 99 1012.1
20260509184016 46 360 0.0 3.0 0.06 0.41 0.41 100 1012.1
20260509183517 46 360 0.0 3.0 0.05 0.40 0.40 100 1012.0
20260509183036 46 360 1.0 2.0 0.06 0.40 0.40 99 1012.0